Time,TemperatureF,DewpointF,PressureIn,WindDirection,WindDirectionDegrees,WindSpeedMPH,WindSpeedGustMPH,Humidity,HourlyPrecipIn,Conditions,Clouds,dailyrainin,SolarRadiationWatts/m^2,SoftwareType,DateUTC
2013-03-29 00:02:00,61.0,22.0,-100.00,NW,307,16.0,30.0,22,0.00,,,-99.99,0.000000,,2013-03-29 07:02:00,
2013-03-29 00:12:00,61.0,22.0,-100.00,NW,307,16.0,30.0,22,0.00,,,-99.99,0.000000,,2013-03-29 07:12:00,
2013-03-29 00:21:00,61.0,22.0,-100.00,NW,307,16.0,30.0,22,0.00,,,-99.99,0.000000,,2013-03-29 07:21:00,
2013-03-29 00:52:00,61.0,26.0,-100.00,West,281,12.0,25.0,26,0.00,,,-99.99,0.000000,,2013-03-29 07:52:00,
2013-03-29 01:02:00,61.0,26.0,-100.00,West,281,12.0,25.0,26,0.00,,,-99.99,0.000000,,2013-03-29 08:02:00,
2013-03-29 01:12:00,61.0,26.0,-100.00,West,281,12.0,25.0,26,0.00,,,-99.99,0.000000,,2013-03-29 08:12:00,
2013-03-29 01:22:00,61.0,26.0,-100.00,West,281,12.0,25.0,26,0.00,,,-99.99,0.000000,,2013-03-29 08:22:00,
2013-03-29 01:53:00,59.0,23.0,-100.00,West,265,15.0,29.0,25,0.00,,,-99.99,0.000000,,2013-03-29 08:53:00,
2013-03-29 02:02:00,59.0,23.0,-100.00,West,265,15.0,29.0,25,0.00,,,-99.99,0.000000,,2013-03-29 09:02:00,
2013-03-29 02:22:00,59.0,23.0,-100.00,West,265,15.0,29.0,25,0.00,,,-99.99,0.000000,,2013-03-29 09:22:00,
2013-03-29 02:52:00,59.0,24.0,-100.00,NE,55,1.0,26.0,26,0.00,,,-99.99,0.000000,,2013-03-29 09:52:00,
2013-03-29 03:02:00,59.0,24.0,-100.00,NE,55,1.0,26.0,26,0.00,,,-99.99,0.000000,,2013-03-29 10:02:00,
2013-03-29 03:12:00,59.0,24.0,-100.00,NE,55,1.0,26.0,26,0.00,,,-99.99,0.000000,,2013-03-29 10:12:00,
2013-03-29 03:22:00,59.0,24.0,-100.00,NE,55,1.0,26.0,26,0.00,,,-99.99,0.000000,,2013-03-29 10:22:00,
2013-03-29 03:53:00,57.0,25.0,-100.00,NW,310,0.0,13.0,29,0.00,,,-99.99,0.000000,,2013-03-29 10:53:00,
2013-03-29 04:03:00,57.0,25.0,-100.00,NW,310,0.0,13.0,29,0.00,,,-99.99,0.000000,,2013-03-29 11:03:00,
2013-03-29 04:12:00,57.0,25.0,-100.00,NW,310,0.0,13.0,29,0.00,,,-99.99,0.000000,,2013-03-29 11:12:00,
2013-03-29 04:22:00,57.0,25.0,-100.00,NW,310,0.0,13.0,29,0.00,,,-99.99,0.000000,,2013-03-29 11:22:00,
2013-03-29 04:52:00,55.0,23.0,-100.00,West,276,0.0,6.0,28,0.00,,,-99.99,0.000000,,2013-03-29 11:52:00,
2013-03-29 05:02:00,55.0,23.0,-100.00,West,276,0.0,6.0,28,0.00,,,-99.99,0.000000,,2013-03-29 12:02:00,
2013-03-29 05:12:00,55.0,23.0,-100.00,West,276,0.0,6.0,28,0.00,,,-99.99,0.000000,,2013-03-29 12:12:00,
2013-03-29 05:22:00,55.0,23.0,-100.00,West,276,0.0,6.0,28,0.00,,,-99.99,0.000000,,2013-03-29 12:22:00,
2013-03-29 05:53:00,54.0,25.0,-100.00,ESE,122,0.0,4.0,32,0.00,,,-99.99,0.000000,,2013-03-29 12:53:00,
2013-03-29 06:02:00,54.0,25.0,-100.00,ESE,122,0.0,4.0,32,0.00,,,-99.99,0.000000,,2013-03-29 13:02:00,
2013-03-29 06:12:00,54.0,25.0,-100.00,ESE,122,0.0,4.0,32,0.00,,,-99.99,0.000000,,2013-03-29 13:12:00,
2013-03-29 06:22:00,54.0,25.0,-100.00,ESE,122,0.0,4.0,32,0.00,,,-99.99,0.000000,,2013-03-29 13:22:00,
2013-03-29 06:53:00,55.0,23.0,-100.00,NNW,330,6.0,8.0,28,0.00,,,-99.99,0.000000,,2013-03-29 13:53:00,
2013-03-29 07:02:00,55.0,23.0,-100.00,NNW,330,6.0,8.0,28,0.00,,,-99.99,0.000000,,2013-03-29 14:02:00,
2013-03-29 07:12:00,55.0,23.0,-100.00,NNW,330,6.0,8.0,28,0.00,,,-99.99,0.000000,,2013-03-29 14:12:00,
2013-03-29 07:22:00,55.0,23.0,-100.00,NNW,330,6.0,8.0,28,0.00,,,-99.99,0.000000,,2013-03-29 14:22:00,
2013-03-29 07:52:00,58.0,25.0,-100.00,South,188,2.0,10.0,28,0.00,,,-99.99,44.000000,,2013-03-29 14:52:00,
2013-03-29 08:02:00,58.0,25.0,-100.00,South,188,2.0,10.0,28,0.00,,,-99.99,44.000000,,2013-03-29 15:02:00,
2013-03-29 08:12:00,58.0,25.0,-100.00,South,188,2.0,10.0,28,0.00,,,-99.99,44.000000,,2013-03-29 15:12:00,
2013-03-29 08:21:00,58.0,25.0,-100.00,South,188,2.0,10.0,28,0.00,,,-99.99,44.000000,,2013-03-29 15:21:00,
2013-03-29 08:53:00,65.0,24.0,-100.00,SSE,163,0.0,10.0,21,0.00,,,-99.99,295.000000,,2013-03-29 15:53:00,
2013-03-29 09:53:00,64.0,22.0,-100.00,ESE,106,1.0,6.0,20,0.00,,,-99.99,580.000000,,2013-03-29 16:53:00,
2013-03-29 10:03:00,64.0,22.0,-100.00,ESE,106,1.0,6.0,20,0.00,,,-99.99,580.000000,,2013-03-29 17:03:00,
2013-03-29 10:12:00,64.0,22.0,-100.00,ESE,106,1.0,6.0,20,0.00,,,-99.99,580.000000,,2013-03-29 17:12:00,
2013-03-29 10:22:00,64.0,22.0,-100.00,ESE,106,1.0,6.0,20,0.00,,,-99.99,580.000000,,2013-03-29 17:22:00,
2013-03-29 10:52:00,70.0,25.0,-100.00,East,101,3.0,10.0,18,0.00,,,-99.99,837.000000,,2013-03-29 17:52:00,
2013-03-29 11:02:00,70.0,25.0,-100.00,East,101,3.0,10.0,18,0.00,,,-99.99,837.000000,,2013-03-29 18:02:00,
2013-03-29 11:52:00,72.0,25.0,-100.00,ENE,74,5.0,10.0,17,0.00,,,0.00,1043.000000,,2013-03-29 18:52:00,
2013-03-29 12:02:00,72.0,25.0,-100.00,ENE,74,5.0,10.0,17,0.00,,,0.00,1043.000000,,2013-03-29 19:02:00,
2013-03-29 12:12:00,72.0,25.0,-100.00,ENE,74,5.0,10.0,17,0.00,,,0.00,1043.000000,,2013-03-29 19:12:00,
2013-03-29 12:21:00,72.0,25.0,-100.00,ENE,74,5.0,10.0,17,0.00,,,0.00,1043.000000,,2013-03-29 19:21:00,
2013-03-29 12:52:00,72.0,25.0,-100.00,ENE,65,3.0,11.0,17,0.00,,,0.00,1173.000000,,2013-03-29 19:52:00,
2013-03-29 13:02:00,72.0,25.0,-100.00,ENE,65,3.0,11.0,17,0.00,,,0.00,1173.000000,,2013-03-29 20:02:00,
2013-03-29 13:12:00,72.0,25.0,-100.00,ENE,65,3.0,11.0,17,0.00,,,0.00,1173.000000,,2013-03-29 20:12:00,
2013-03-29 13:22:00,72.0,25.0,-100.00,ENE,65,3.0,11.0,17,0.00,,,0.00,1173.000000,,2013-03-29 20:22:00,
2013-03-29 13:52:00,74.0,22.0,-100.00,SE,142,2.0,11.0,14,0.00,,,0.00,1214.000000,,2013-03-29 20:52:00,
2013-03-29 14:02:00,74.0,22.0,-100.00,SE,142,2.0,11.0,14,0.00,,,0.00,1214.000000,,2013-03-29 21:02:00,
2013-03-29 14:12:00,74.0,22.0,-100.00,SE,142,2.0,11.0,14,0.00,,,0.00,1214.000000,,2013-03-29 21:12:00,
2013-03-29 14:21:00,74.0,22.0,-100.00,SE,142,2.0,11.0,14,0.00,,,0.00,1214.000000,,2013-03-29 21:21:00,
2013-03-29 14:53:00,75.0,21.0,-100.00,SSE,158,7.0,15.0,13,0.00,,,0.00,1175.000000,,2013-03-29 21:53:00,
2013-03-29 15:03:00,75.0,21.0,-100.00,SSE,158,7.0,15.0,13,0.00,,,0.00,1175.000000,,2013-03-29 22:03:00,
2013-03-29 15:12:00,75.0,21.0,-100.00,SSE,158,7.0,15.0,13,0.00,,,0.00,1175.000000,,2013-03-29 22:12:00,
2013-03-29 15:22:00,75.0,21.0,-100.00,SSE,158,7.0,15.0,13,0.00,,,0.00,1175.000000,,2013-03-29 22:22:00,
2013-03-29 15:53:00,76.0,22.0,-100.00,SE,133,7.0,20.0,13,0.00,,,0.00,1044.000000,,2013-03-29 22:53:00,
2013-03-29 16:02:00,76.0,22.0,-100.00,SE,133,7.0,20.0,13,0.00,,,0.00,1044.000000,,2013-03-29 23:02:00,
2013-03-29 16:12:00,76.0,22.0,-100.00,SE,133,7.0,20.0,13,0.00,,,0.00,1044.000000,,2013-03-29 23:12:00,
2013-03-29 16:22:00,76.0,22.0,-100.00,SE,133,7.0,20.0,13,0.00,,,0.00,1044.000000,,2013-03-29 23:22:00,
2013-03-29 16:52:00,75.0,17.0,-100.00,SSE,160,11.0,19.0,11,0.00,,,0.00,844.000000,,2013-03-29 23:52:00,
2013-03-29 17:02:00,75.0,17.0,-100.00,SSE,160,11.0,19.0,11,0.00,,,0.00,844.000000,,2013-03-30 00:02:00,
2013-03-29 17:11:00,75.0,17.0,-100.00,SSE,160,11.0,19.0,11,0.00,,,0.00,844.000000,,2013-03-30 00:11:00,
2013-03-29 17:21:00,75.0,17.0,-100.00,SSE,160,11.0,19.0,11,0.00,,,0.00,844.000000,,2013-03-30 00:21:00,
2013-03-29 17:53:00,72.0,12.0,-100.00,South,176,11.0,21.0,10,0.00,,,0.00,489.000000,,2013-03-30 00:53:00,
2013-03-29 18:02:00,72.0,12.0,-100.00,South,176,11.0,21.0,10,0.00,,,0.00,489.000000,,2013-03-30 01:02:00,
2013-03-29 18:12:00,72.0,12.0,-100.00,South,176,11.0,21.0,10,0.00,,,0.00,489.000000,,2013-03-30 01:12:00,
2013-03-29 18:22:00,72.0,12.0,-100.00,South,176,11.0,21.0,10,0.00,,,0.00,489.000000,,2013-03-30 01:22:00,
2013-03-29 18:53:00,70.0,19.0,-100.00,South,186,16.0,21.0,14,0.00,,,0.00,125.000000,,2013-03-30 01:53:00,
2013-03-29 19:02:00,70.0,19.0,-100.00,South,186,16.0,21.0,14,0.00,,,0.00,125.000000,,2013-03-30 02:02:00,
2013-03-29 19:12:00,70.0,19.0,-100.00,South,186,16.0,21.0,14,0.00,,,0.00,125.000000,,2013-03-30 02:12:00,
2013-03-29 19:22:00,70.0,19.0,-100.00,South,186,16.0,21.0,14,0.00,,,0.00,125.000000,,2013-03-30 02:22:00,
2013-03-29 19:53:00,66.0,17.0,-100.00,SSW,196,14.0,20.0,15,0.00,,,0.00,19.000000,,2013-03-30 02:53:00,
2013-03-29 20:02:00,66.0,17.0,-100.00,SSW,196,14.0,20.0,15,0.00,,,0.00,19.000000,,2013-03-30 03:02:00,
2013-03-29 20:12:00,66.0,17.0,-100.00,SSW,196,14.0,20.0,15,0.00,,,0.00,19.000000,,2013-03-30 03:12:00,
2013-03-29 20:21:00,66.0,17.0,-100.00,SSW,196,14.0,20.0,15,0.00,,,0.00,19.000000,,2013-03-30 03:21:00,
2013-03-29 20:53:00,67.0,22.0,-100.00,WNW,287,4.0,16.0,18,0.00,,,0.00,0.000000,,2013-03-30 03:53:00,
2013-03-29 21:02:00,67.0,22.0,-100.00,WNW,287,4.0,16.0,18,0.00,,,0.00,0.000000,,2013-03-30 04:02:00,
2013-03-29 21:12:00,67.0,22.0,-100.00,WNW,287,4.0,16.0,18,0.00,,,0.00,0.000000,,2013-03-30 04:12:00,
2013-03-29 21:23:00,67.0,22.0,-100.00,WNW,287,4.0,16.0,18,0.00,,,0.00,0.000000,,2013-03-30 04:23:00,
2013-03-29 21:53:00,66.0,24.0,-100.00,SE,146,0.0,13.0,20,0.00,,,0.00,0.000000,,2013-03-30 04:53:00,
2013-03-29 22:02:00,66.0,24.0,-100.00,SE,146,0.0,13.0,20,0.00,,,0.00,0.000000,,2013-03-30 05:02:00,
2013-03-29 22:12:00,66.0,24.0,-100.00,SE,146,0.0,13.0,20,0.00,,,0.00,0.000000,,2013-03-30 05:12:00,
2013-03-29 22:22:00,66.0,24.0,-100.00,SE,146,0.0,13.0,20,0.00,,,0.00,0.000000,,2013-03-30 05:22:00,
2013-03-29 22:52:00,67.0,27.0,-100.00,WNW,292,0.0,4.0,22,0.00,,,0.00,0.000000,,2013-03-30 05:52:00,
2013-03-29 23:02:00,67.0,27.0,-100.00,WNW,292,0.0,4.0,22,0.00,,,0.00,0.000000,,2013-03-30 06:02:00,
2013-03-29 23:11:00,67.0,27.0,-100.00,WNW,292,0.0,4.0,22,0.00,,,0.00,0.000000,,2013-03-30 06:11:00,
2013-03-29 23:22:00,67.0,27.0,-100.00,WNW,292,0.0,4.0,22,0.00,,,0.00,0.000000,,2013-03-30 06:22:00,
2013-03-29 23:52:00,67.0,29.0,-100.00,WSW,246,1.0,5.0,24,0.00,,,0.00,0.000000,,2013-03-30 06:52:00,